sat.trackr.live / text

‹ back to catalog

STARLINK-32174

NORAD 61509 · 2024-183A

PAYLOAD ACTIVE UNKNOWN

§ Identity

Operator
Country
US
Launch date
2024-10-15
Launch site
AFETR
Launch vehicle
Mass (kg)
RCS (m²)

Purposes: comms

External: N2YO · Heavens-Above · Gunter

§ Orbital elements

Epoch: 2026-05-25T02:44:08.105280Z

Period
94.11 min
Inclination
53.1596°
Eccentricity
0.0001260
Mean motion
15.30184702 rev/d
Perigee alt
474.4 km
Apogee alt
476.1 km
Semi-major
6,853.4 km
B*
-7.4179e-6
RAAN
134.6587°
Arg perigee
76.4832°
Mean anomaly
283.6309°
Rev number
9,153

§ Raw data

STARLINK-321741 61509U 24183A   26145.11398270 -.00000579  00000+0 -74179-5 0  99932 61509  53.1596 134.6587 0001260  76.4832 283.6309 15.30184702 91535

JSON: /api/v1/satellites/61509 · /tle

For live sub-satellite position, see the globe view (requires WebGL).

§ Visibility from observer

Set your observer location to see the next 7 days of passes ≥ 10°. The values pass through the URL so the page stays shareable.

No JS? Fill the form by hand. The geolocation button needs JavaScript.